This is the latest recevied weather packets stored in our database for station/object W0SS-13. If no packets are shown the sender has not sent any weather packets the latest 10 day(s).
| Time | Temp. | Humidity | Pressure | Rain* | Wind** | Luminosity | Snow |
|---|---|---|---|---|---|---|---|
| 1777672025 | 17.22° C | 38% | 1017.4 hPa | 0 mm | - | 231 W/m² | - |
| 1777671722 | 17.78° C | 37% | 1017.6 hPa | 0 mm | - | 506 W/m² | - |
| 1777671418 | 17.22° C | 38% | 1017.6 hPa | 0 mm | - | 490 W/m² | - |
| 1777671114 | 17.22° C | 40% | 1017.5 hPa | 0 mm | - | 213 W/m² | - |
| 1777670811 | 17.22° C | 37% | 1017.6 hPa | 0 mm | - | 170 W/m² | - |
| 1777670508 | 17.22° C | 40% | 1017.7 hPa | 0 mm | - | 297 W/m² | - |
| 1777670204 | 17.78° C | 36% | 1017.7 hPa | 0 mm | - | 270 W/m² | - |
| 1777669902 | 17.22° C | 37% | 1018.1 hPa | 0 mm | - | 328 W/m² | - |
| 1777669598 | 17.22° C | 40% | 1018.2 hPa | 0 mm | - | 229 W/m² | - |
| 1777669295 | 17.22° C | 40% | 1018.1 hPa | 0 mm | - | 204 W/m² | - |
| 1777668992 | 17.22° C | 41% | 1018.2 hPa | 0 mm | - | 269 W/m² | - |
| 1777668689 | 17.22° C | 39% | 1018.2 hPa | 0 mm | - | 268 W/m² | - |
| 1777668386 | 17.78° C | 38% | 1018.3 hPa | 0 mm | - | 268 W/m² | - |
| 1777668081 | 17.22° C | 39% | 1018.5 hPa | 0 mm | - | 853 W/m² | - |
| 1777667778 | 16.67° C | 38% | 1018.5 hPa | 0 mm | - | 296 W/m² | - |
| 1777667476 | 16.67° C | 39% | 1018.6 hPa | 0 mm | - | 207 W/m² | - |
| 1777667172 | 17.22° C | 44% | 1018.7 hPa | 0 mm | - | 226 W/m² | - |
| 1777666869 | 16.67° C | 39% | 1018.7 hPa | 0 mm | - | 362 W/m² | - |
| 1777666561 | 16.67° C | 39% | 1018.7 hPa | 0 mm | - | 257 W/m² | - |
| 1777666256 | 16.67° C | 41% | 1019.1 hPa | 0 mm | - | 208 W/m² | - |
| 1777665954 | 16.67° C | 39% | 1018.8 hPa | 0 mm | - | 176 W/m² | - |
| 1777665651 | 16.67° C | 39% | 1019.1 hPa | 0 mm | - | 169 W/m² | - |
| 1777665349 | 16.67° C | 41% | 1019.1 hPa | 0 mm | - | 165 W/m² | - |
| 1777665044 | 16.67° C | 39% | 1018.9 hPa | 0 mm | - | 159 W/m² | - |
| 1777664739 | 16.67° C | 37% | 1019.1 hPa | 0 mm | - | 176 W/m² | - |
* Rain latest hour (hover to see other rain measurements)
** Current wind speed in m/s (hover to see current wind gust speed)